This is the latest recevied weather packets stored in our database for station/object KA3WVU. If no packets are shown the sender has not sent any weather packets the latest 10 day(s).
| Time | Temp. | Humidity | Pressure | Rain* | Wind** | Luminosity | Snow |
|---|---|---|---|---|---|---|---|
| 1777978590 | 13.33° C | 76% | 1008.9 hPa | 0 mm | - | 11 W/m² | - |
| 1777978285 | 13.33° C | 78% | 1008.7 hPa | 0 mm | - | 9 W/m² | - |
| 1777977982 | 13.33° C | 77% | 1008.5 hPa | 0 mm | - | 9 W/m² | - |
| 1777977680 | 13.33° C | 77% | 1008.5 hPa | 0 mm | - | 11 W/m² | - |
| 1777977376 | 12.78° C | 78% | 1008.5 hPa | 0 mm | - | 10 W/m² | - |
| 1777977074 | 12.78° C | 78% | 1008.5 hPa | 0 mm | - | 13 W/m² | - |
| 1777976771 | 12.22° C | 80% | 1008.5 hPa | 0 mm | - | 9 W/m² | - |
| 1777976469 | 12.22° C | 79% | 1008.3 hPa | 0 mm | - | 5 W/m² | - |
| 1777976167 | 12.22° C | 80% | 1008.3 hPa | 0 mm | - | 3 W/m² | - |
| 1777975863 | 12.22° C | 80% | 1008.3 hPa | 0 mm | - | 2 W/m² | - |
| 1777975559 | 12.22° C | 80% | 1008.1 hPa | 0 mm | - | 1 W/m² | - |
| 1777975256 | 12.78° C | 80% | 1008.1 hPa | 0 mm | - | 1 W/m² | - |
| 1777974953 | 12.22° C | 80% | 1008.2 hPa | 0 mm | - | 0 W/m² | - |
| 1777974649 | 12.22° C | 81% | 1008.2 hPa | 0 mm | - | 0 W/m² | - |
| 1777974345 | 12.22° C | 80% | 1008.2 hPa | 0 mm | - | 0 W/m² | - |
| 1777974042 | 12.78° C | 80% | 1008 hPa | 0 mm | - | 0 W/m² | - |
| 1777973738 | 12.78° C | 80% | 1008.1 hPa | 0 mm | - | 0 W/m² | - |
| 1777973436 | 12.78° C | 80% | 1008 hPa | 0 mm | - | 0 W/m² | - |
| 1777973133 | 12.78° C | 80% | 1007.9 hPa | 0 mm | - | 0 W/m² | - |
| 1777972831 | 13.33° C | 78% | 1008 hPa | 0 mm | - | 0 W/m² | - |
| 1777972528 | 13.33° C | 78% | 1008.1 hPa | 0 mm | - | 0 W/m² | - |
| 1777972226 | 13.33° C | 79% | 1008 hPa | 0 mm | - | 0 W/m² | - |
| 1777971924 | 13.33° C | 79% | 1008.1 hPa | 0 mm | - | 0 W/m² | - |
| 1777971622 | 13.33° C | 80% | 1007.9 hPa | 0 mm | - | 0 W/m² | - |
| 1777971319 | 13.33° C | 79% | 1008.1 hPa | 0 mm | - | 0 W/m² | - |
* Rain latest hour (hover to see other rain measurements)
** Current wind speed in m/s (hover to see current wind gust speed)